COSMOS 2251 DEB, 35883

Orbit data source: Space-Track

COSMOS 2251 DEB, 35883 is space debris in LEO originally from a launch on Wed, 16 Jun 1993 UTC launched from the Plesetsk Missile And Space Complex (PKMTR). The debris from Iridium 33, an American commercial communications satellite, has been tracked extensively since its accidental collision with the defunct Russian satellite Cosmos 2251 in 2009. This event, occurring at high speed in low Earth orbit (LEO), generated thousands of pieces of space debris, significantly increasing the risk of further collisions. The Iridium 33 debris cloud has impacted space traffic management and orbital debris mitigation strategies, making it a subject of ongoing study in space situational awareness.

Loading next visibility...
Identifier
35883, 1993-036ATW
Orbit
LEO
Country
Flag of CISCIS
Related business
Manufacturer
Unknown
Mission
Spacecraft
Bus & Motor
Unknown
Mass
Unknown
Launch date (UTC)
1993-06-16 (33 years ago)
Launch vehicle
Unknown
Launch site
Plesetsk Missile And Space Complex (PKMTR)
Object type
Payload
Rocket body
Debris
Shape & HBR
Unknown shape, 0.1 m
Radar Cross Section
Small (<0.1 m²)

Expand to show TLE details & history
Last TLE update: 2 days ago

TLE from 2 days ago
0 COSMOS 2251 DEB
1 35883U 93036ATW 26148.89588334  .00000790  00000-0  19851-3 0  9990
2 35883  74.0220 115.4556 0083920 203.4601 186.8290 14.50943670648101
Epoch: 2026-05-28T21:30Z
TLE epoch observation values (Epoch: 2026-05-28T21:30:04.320Z)
Latitude
28.95012°
Longitude
-84.43181°
Altitude
785.038 km
Speed
7.433 km/s
True Right ascension
08h 18m 04s
True Declination
28° 48' 19"
Sunlit
Object was in daylight at epoch
Visualization orbit readout
Latitude
Unknown
Longitude
Unknown
Altitude
Unknown
Speed
Unknown
Apparent Right ascension
Unknown
Apparent Declination
Unknown
Sunlit
N/A
Visualization observer readout
Local Sidereal Time
11:30:06
Azimuth
Unknown
Elevation
Unknown
Doppler factor
Unknown
Orbital elements
Apogee altitude
779.746 km
Perigee altitude
660.607 km
Semi-major axis
7,098.314 km
Eccentricity
0.00839
Inclination
74.022°
RAAN
115.4556°
Arg. of periapsis
203.4601°
True anomaly
186.71583°
Mean anomaly
186.829°
Eccentric anomaly
186.7723°
Mean motion
3.6292 °/min
Orbital period
99.2 mins
BSTAR
0.00019851
Loading maneuver chart data...
Computing Atmospheric mass density...

Documentation

Showing up to 5 results
|